Change the Weather History Date:

Thursday, November 7, 2013

  Actual Average (KSFQ) Record (KSFQ)
Temperature  
Mean Temperature 60 °F -  
Max Temperature 69 °F 62 °F 78 °F (1975)
Min Temperature 48 °F 40 °F 26 °F (1952)
Degree Days  
Heating Degree Days 6    
Growing Degree Days 10 (Base 50)    
Moisture  
Dew Point 57 °F    
Average Humidity 83    
Maximum Humidity 100    
Minimum Humidity 62    
Precipitation  
Precipitation 0.00 in - - ()
Sea Level Pressure  
Sea Level Pressure 29.98 in    
Wind  
Wind Speed 3 mph (WNW)    
Max Wind Speed 9 mph    
Max Gust Speed 17 mph    
Visibility 8 miles    
Events      
Averages and records for this station are not official NWS values.
T = Trace of Precipitation, MM = Missing Value Source: NWS Daily Summary

Daily Weather History Graph

Daily Weather History Graph

Search for Another Location

Airport or City:

Trip Planner

Search our weather history database for the weather conditions in past years. The results will help you decide how hot, cold, wet, or windy it might be!

Date:

Astronomy

Nov. 07, 2013 Rise Set
Actual Time 6:37 AM EST 5:04 PM EST
Civil Twilight 6:10 AM EST 5:31 PM EST
Nautical Twilight 5:39 AM EST 6:02 PM EST
Astronomical Twilight 5:09 AM EST 6:32 PM EST
Moon 10:43 AM EST (11/7) 9:14 PM EST (11/7)
Length of Visible Light 11h 21m
Length of Day
10h 27m
Waxing Crescent, 22% of the Moon is Illuminated
Nov 7
Waxing Crescent
Nov 10
First Quarter
Nov 17
Full
Nov 25
Last Quarter
Dec 2
New

Hourly Weather History & Observations

Time (EST) Temp. Dew Point Humidity Pressure Visibility Wind Dir Wind Speed Gust Speed Precip Events Conditions
12:15 AM 62.6 °F 60.8 °F 94% 30.12 in 10.0 mi Calm Calm - N/A   Overcast
12:35 AM 62.6 °F 60.8 °F 94% 30.11 in 10.0 mi South 3.5 mph - N/A   Overcast
12:55 AM 62.6 °F 62.6 °F 100% 30.10 in 10.0 mi South 3.5 mph - N/A   Overcast
1:15 AM 62.6 °F 62.6 °F 100% 30.10 in 7.0 mi Calm Calm - N/A   Overcast
1:35 AM 62.6 °F 62.6 °F 100% 30.09 in 7.0 mi Calm Calm - N/A   Overcast
1:55 AM 62.6 °F 62.6 °F 100% 30.08 in 5.0 mi Calm Calm - N/A   Overcast
2:15 AM 62.6 °F 62.6 °F 100% 30.08 in 7.0 mi Calm Calm - N/A   Overcast
2:55 AM 62.6 °F - N/A% 30.05 in 4.0 mi South 4.6 mph - N/A   Overcast
3:15 AM 62.6 °F - N/A% 30.04 in 4.0 mi South 4.6 mph - N/A   Overcast
3:35 AM 62.6 °F - N/A% 30.04 in 7.0 mi South 3.5 mph - N/A   Overcast
3:55 AM 62.6 °F - N/A% 30.03 in 7.0 mi South 3.5 mph - N/A   Overcast
4:15 AM 62.6 °F - N/A% 30.02 in 4.0 mi Calm Calm - N/A   Overcast
4:35 AM 62.6 °F - N/A% 30.02 in 2.5 mi Calm Calm - N/A   Overcast
4:55 AM 62.6 °F - N/A% 30.02 in 1.8 mi Calm Calm - N/A   Overcast
5:15 AM 62.6 °F - N/A% 30.01 in 1.8 mi Calm Calm - N/A   Overcast
5:35 AM 62.6 °F - N/A% 30.00 in 2.5 mi WNW 4.6 mph - N/A   Overcast
5:55 AM 62.6 °F - N/A% 29.99 in 2.0 mi Calm Calm - N/A   Overcast
6:15 AM 62.6 °F - N/A% 30.00 in 1.5 mi South 4.6 mph - N/A   Overcast
6:35 AM 62.6 °F - N/A% 29.99 in 2.5 mi Calm Calm - N/A   Overcast
6:55 AM 62.6 °F - N/A% 29.99 in 2.0 mi Calm Calm - N/A   Overcast
7:15 AM 62.6 °F - N/A% 29.99 in 2.5 mi Calm Calm - N/A   Overcast
7:35 AM 62.6 °F - N/A% 29.99 in 2.5 mi Calm Calm - N/A   Overcast
7:55 AM 62.6 °F - N/A% 29.98 in 2.0 mi Calm Calm - N/A   Overcast
8:15 AM 64.4 °F - N/A% 29.98 in 4.0 mi Calm Calm - N/A   Overcast
8:35 AM 64.4 °F - N/A% 29.98 in 3.0 mi Calm Calm - N/A   Overcast
8:55 AM 64.4 °F - N/A% 29.97 in 3.0 mi South 4.6 mph - N/A   Overcast
9:15 AM 64.4 °F - N/A% 29.96 in 7.0 mi South 3.5 mph - N/A   Overcast
9:35 AM 64.4 °F - N/A% 29.95 in 4.0 mi Calm Calm - N/A   Overcast
9:55 AM 64.4 °F - N/A% 29.95 in 7.0 mi WSW 3.5 mph - N/A   Mostly Cloudy
10:15 AM 64.4 °F - N/A% 29.95 in 10.0 mi WSW 3.5 mph - N/A   Mostly Cloudy
10:35 AM 66.2 °F - N/A% 29.95 in 10.0 mi WSW 6.9 mph - N/A   Mostly Cloudy
10:55 AM 66.2 °F 66.2 °F 100% 29.94 in 10.0 mi WSW 4.6 mph - N/A   Mostly Cloudy
11:15 AM 68.0 °F 66.2 °F 94% 29.93 in 10.0 mi WSW 5.8 mph - N/A   Overcast
11:35 AM 68.0 °F 66.2 °F 94% 29.91 in 10.0 mi WSW 6.9 mph - N/A   Mostly Cloudy
11:55 AM 68.0 °F 64.4 °F 88% 29.90 in 10.0 mi WSW 5.8 mph - N/A   Mostly Cloudy
12:15 PM 69.8 °F 62.6 °F 78% 29.88 in 10.0 mi SW 8.1 mph - N/A   Mostly Cloudy
12:35 PM 69.8 °F 62.6 °F 78% 29.89 in 10.0 mi WSW 6.9 mph 16.1 mph N/A   Mostly Cloudy
12:55 PM 69.8 °F 62.6 °F 78% 29.89 in 10.0 mi WSW 8.1 mph - N/A   Scattered Clouds
1:15 PM 69.8 °F 62.6 °F 78% 29.88 in 10.0 mi WSW 8.1 mph - N/A   Scattered Clouds
1:35 PM 69.8 °F 62.6 °F 78% 29.88 in 10.0 mi West 8.1 mph 16.1 mph N/A   Mostly Cloudy
1:55 PM 69.8 °F 62.6 °F 78% 29.88 in 10.0 mi West 9.2 mph - N/A   Mostly Cloudy
2:15 PM 69.8 °F 60.8 °F 73% 29.89 in 10.0 mi West 6.9 mph - N/A   Mostly Cloudy
2:35 PM 69.8 °F 62.6 °F 78% 29.88 in 10.0 mi West 8.1 mph - N/A   Overcast
2:55 PM 69.8 °F 62.6 °F 78% 29.89 in 10.0 mi WNW 6.9 mph - N/A   Overcast
3:15 PM 69.8 °F 60.8 °F 73% 29.89 in 10.0 mi WNW 9.2 mph 16.1 mph N/A   Overcast
3:35 PM 68.0 °F 60.8 °F 78% 29.89 in 10.0 mi NW 3.5 mph - N/A   Overcast
3:55 PM 68.0 °F 60.8 °F 78% 29.89 in 10.0 mi Calm Calm - N/A   Overcast
4:15 PM 66.2 °F 60.8 °F 83% 29.89 in 10.0 mi Calm Calm - N/A   Overcast
4:35 PM 66.2 °F 60.8 °F 83% 29.89 in 10.0 mi Calm Calm - N/A   Overcast
4:55 PM 66.2 °F 60.8 °F 83% 29.90 in 10.0 mi Calm Calm - N/A   Overcast
5:55 PM 62.6 °F 60.8 °F 94% 29.92 in 10.0 mi Calm Calm - N/A   Mostly Cloudy
6:15 PM 62.6 °F 60.8 °F 94% 29.94 in 10.0 mi Calm Calm - N/A   Scattered Clouds
6:35 PM 62.6 °F 59.0 °F 88% 29.95 in 10.0 mi Calm Calm - N/A   Scattered Clouds
6:55 PM 60.8 °F 59.0 °F 94% 29.96 in 10.0 mi NNE 6.9 mph - N/A   Mostly Cloudy
7:15 PM 62.6 °F 57.2 °F 82% 29.98 in 10.0 mi NNW 5.8 mph - N/A   Overcast
7:35 PM 60.8 °F 53.6 °F 77% 29.99 in 10.0 mi North 6.9 mph - N/A   Mostly Cloudy
7:55 PM 60.8 °F 53.6 °F 77% 30.00 in 10.0 mi North 8.1 mph - N/A   Mostly Cloudy
8:15 PM 59.0 °F 53.6 °F 82% 30.01 in 10.0 mi North 5.8 mph - N/A   Overcast
8:35 PM 59.0 °F 51.8 °F 77% 30.02 in 10.0 mi North 8.1 mph - N/A   Overcast
8:55 PM 57.2 °F 48.2 °F 72% 30.03 in 10.0 mi North 6.9 mph - N/A   Overcast
9:15 PM 57.2 °F 48.2 °F 72% 30.03 in 10.0 mi North 5.8 mph - N/A   Overcast
9:35 PM 55.4 °F 48.2 °F 77% 30.04 in 10.0 mi North 5.8 mph - N/A   Mostly Cloudy
9:55 PM 55.4 °F 48.2 °F 77% 30.04 in 10.0 mi NNE 4.6 mph - N/A   Mostly Cloudy
10:15 PM 53.6 °F 46.4 °F 77% 30.05 in 10.0 mi North 5.8 mph - N/A   Scattered Clouds
10:35 PM 53.6 °F 44.6 °F 72% 30.05 in 10.0 mi NNE 4.6 mph - N/A   Clear
10:55 PM 51.8 °F 42.8 °F 71% 30.06 in 10.0 mi NNE 4.6 mph - N/A   Clear
11:15 PM 51.8 °F 39.2 °F 62% 30.06 in 10.0 mi North 8.1 mph 17.3 mph N/A   Clear
11:35 PM 50.0 °F 39.2 °F 66% 30.07 in 10.0 mi NNE 4.6 mph - N/A   Clear
11:55 PM 48.2 °F 39.2 °F 71% 30.07 in 10.0 mi North 4.6 mph - N/A   Clear